Location: ??? ???
(33.4974°N, 35.4618°E)
Time: 02:14:44
(UTC+00:00)

Okean-O - Pass Details

Date: 29 October 2020
Orbit: 638 x 641 km, 98.2° (Epoch: 25 November)

Event Time Altitude Azimuth Distance (km) Brightness Sun altitude
Rises 16:17:22 0° 167° (SSE) 2,930 5.9 -19.0°
Reaches altitude 10° 16:19:34 10° 168° (SSE) 2,024 5.1 -19.5°
Maximum altitude 16:23:59 87° 257° (WSW) 646 2.6 -20.4°
Drops below altitude 10° 16:28:26 10° 347° (NNW) 2,037 5.3 -21.3°
Sets 16:30:38 0° 348° (NNW) 2,949 6.2 -21.8°
